GW1404 Weather Reports


time (UTC)temp
C
wind
direction
speed
KPH
gust
KPH
rain 1hr
cm
rain 24hr
cm
rain mn
cm
humidity
%
barometer
mb
20260506045042 23 5 1.6 8.0 0.00 0.00 0.00 90 1008.8
20260506044554 23 150 3.2 8.0 0.00 0.00 0.00 90 1009.0
20260506044042 23 214 0.0 12.9 0.00 0.00 0.00 90 1008.9
20260506043544 23 191 1.6 12.9 0.00 0.00 0.00 90 1009.0
20260506043051 23 217 4.8 11.3 0.00 0.00 0.00 90 1009.0
20260506042544 23 188 3.2 11.3 0.00 0.00 0.00 90 1008.8
20260506042045 23 203 3.2 14.5 0.00 0.00 0.00 90 1008.8
20260506041558 23 216 3.2 14.5 0.00 0.00 0.00 90 1008.7
20260506041044 23 253 3.2 11.3 0.00 0.00 0.00 90 1008.8
20260506040544 23 215 3.2 11.3 0.00 0.00 0.00 90 1008.7
20260506040056 23 207 3.2 11.3 0.00 0.00 0.00 90 1008.7
20260506035545 23 195 1.6 6.4 0.00 0.00 0.00 90 1008.6
20260506035045 23 205 1.6 8.0 0.00 0.00 0.00 90 1008.7
20260506034600 23 220 1.6 8.0 0.00 0.00 0.00 89 1008.6
20260506034045 23 208 3.2 9.7 0.00 0.00 0.00 89 1008.4
20260506033546 23 236 3.2 9.7 0.00 0.00 0.00 89 1008.3
20260506033053 23 200 3.2 11.3 0.00 0.00 0.00 89 1008.4
20260506032550 23 219 1.6 11.3 0.00 0.00 0.00 88 1008.3
20260506032049 23 217 3.2 9.7 0.00 0.00 0.00 88 1008.2
20260506031549 23 196 1.6 6.4 0.00 0.00 0.00 88 1008.2
20260506031047 23 179 3.2 6.4 0.00 0.00 0.00 88 1008.0
20260506030545 23 215 3.2 6.4 0.00 0.00 0.00 88 1007.9
20260506030050 23 207 1.6 6.4 0.00 0.00 0.00 87 1007.8
20260506025546 24 200 1.6 6.4 0.00 0.00 0.00 87 1007.7
20260506025044 24 211 1.6 6.4 0.00 0.00 0.00 87 1007.7
20260506024607 24 171 1.6 6.4 0.00 0.00 0.00 86 1007.5
20260506024045 24 0 1.6 3.2 0.00 0.00 0.00 86 1007.5
20260506023548 24 0 0.0 8.0 0.00 0.00 0.00 86 1007.3
20260506023056 24 229 1.6 8.0 0.00 0.00 0.00 86 1007.3
20260506022545 24 199 1.6 6.4 0.00 0.00 0.00 86 1007.2
20260506022045 24 224 1.6 6.4 0.00 0.00 0.00 86 1007.2
20260506021553 24 221 1.6 6.4 0.00 0.00 0.00 85 1007.2
20260506021044 24 223 1.6 6.4 0.00 0.00 0.00 85 1007.0
20260506020548 25 223 3.2 6.4 0.00 0.00 0.00 85 1007.0
20260506020052 25 221 1.6 8.0 0.00 0.00 0.00 84 1007.0
20260506015548 25 209 1.6 8.0 0.00 0.00 0.00 84 1006.9
20260506015042 25 200 1.6 8.0 0.00 0.00 0.00 84 1006.8
20260506014554 25 203 1.6 9.7 0.00 0.00 0.00 83 1006.6
20260506014047 25 216 3.2 9.7 0.00 0.00 0.00 83 1006.6
20260506013548 25 182 3.2 9.7 0.00 0.00 0.00 82 1006.5
20260506013104 25 216 3.2 9.7 0.00 0.00 0.00 82 1006.5
20260506012544 25 217 1.6 9.7 0.00 0.00 0.00 82 1006.6
20260506012045 25 206 0.0 11.3 0.00 0.00 0.00 81 1006.7
20260506011605 26 202 3.2 11.3 0.00 0.00 0.00 81 1006.6
20260506011045 26 233 4.8 12.9 0.00 0.00 0.00 81 1006.5
20260506010545 26 196 4.8 12.9 0.00 0.00 0.00 81 1006.4
20260506010055 26 234 4.8 9.7 0.00 0.00 0.00 80 1006.5
20260506005543 26 0 1.6 9.7 0.00 0.00 0.00 80 1006.4
20260506005045 26 0 1.6 9.7 0.00 0.00 0.00 79 1006.4
20260506004559 26 219 3.2 12.9 0.00 0.00 0.00 79 1006.5
20260506004045 26 238 4.8 12.9 0.00 0.00 0.00 79 1006.4
20260506003545 26 219 4.8 12.9 0.00 0.00 0.00 78 1006.4
20260506003050 27 196 4.8 11.3 0.00 0.00 0.00 78 1006.5
20260506002546 27 211 4.8 11.3 0.00 0.00 0.00 78 1006.5
20260506002045 27 193 3.2 14.5 0.00 0.00 0.00 78 1006.6
20260506001557 27 220 3.2 14.5 0.00 0.00 0.00 77 1006.6
20260506001045 27 204 6.4 14.5 0.00 0.00 0.00 77 1006.5
20260506000546 27 199 4.8 17.7 0.00 0.00 0.00 77 1006.5
20260506000101 27 225 4.8 17.7 0.00 0.00 0.00 77 1006.5
20260505235545 27 225 6.4 17.7 0.00 0.00 0.00 76 1006.5
20260505235045 27 182 6.4 17.7 0.00 0.00 0.00 76 1006.4
20260505234557 27 177 6.4 14.5 0.00 0.00 0.00 76 1006.6
20260505234044 27 251 4.8 12.9 0.00 0.00 0.00 76 1006.6
20260505233544 27 211 6.4 12.9 0.00 0.00 0.00 75 1006.4
20260505233059 27 209 6.4 14.5 0.00 0.00 0.00 76 1006.3
20260505232545 27 197 4.8 14.5 0.00 0.00 0.00 75 1006.2
20260505232047 27 207 4.8 12.9 0.00 0.00 0.00 76 1006.3
20260505231553 27 248 4.8 12.9 0.00 0.00 0.00 76 1006.2
20260505231047 27 201 3.2 12.9 0.00 0.00 0.00 76 1006.3
20260505230545 27 203 6.4 16.1 0.00 0.00 0.00 75 1006.2
20260505230104 27 206 6.4 16.1 0.00 0.00 0.00 74 1006.2
20260505225548 27 161 4.8 16.1 0.00 0.00 0.00 75 1006.3
20260505225045 27 202 8.0 16.1 0.00 0.00 0.00 74 1006.3
20260505224553 27 236 6.4 17.7 0.00 0.00 0.00 74 1006.2
20260505224046 27 172 8.0 17.7 0.00 0.00 0.00 74 1006.2
20260505223545 27 213 6.4 20.9 0.00 0.00 0.00 76 1006.2
20260505223108 27 227 6.4 20.9 0.00 0.00 0.00 75 1006.1
20260505222544 27 190 8.0 17.7 0.00 0.00 0.00 74 1006.1
20260505222045 27 202 8.0 19.3 0.00 0.00 0.00 74 1006.1
20260505221553 28 233 6.4 19.3 0.00 0.00 0.00 74 1006.1
20260505221047 28 202 8.0 14.5 0.00 0.00 0.00 73 1006.0
20260505220544 27 209 6.4 16.1 0.00 0.00 0.00 73 1006.0
20260505220053 28 188 6.4 17.7 0.00 0.00 0.00 73 1006.2
20260505215545 28 220 6.4 17.7 0.00 0.00 0.00 72 1006.3
20260505215044 28 278 6.4 16.1 0.00 0.00 0.00 72 1006.3
20260505214557 28 221 8.0 17.7 0.00 0.00 0.00 72 1006.4
20260505214045 28 244 8.0 20.9 0.00 0.00 0.00 72 1006.5
20260505213548 27 216 9.7 20.9 0.00 0.00 0.00 73 1006.5
20260505213100 28 231 9.7 19.3 0.00 0.00 0.00 72 1006.6
20260505212545 28 223 8.0 19.3 0.00 0.00 0.00 73 1006.7
20260505212045 28 217 8.0 17.7 0.00 0.00 0.00 72 1006.6
20260505211556 28 224 6.4 16.1 0.00 0.00 0.00 74 1006.6
20260505211045 28 204 6.4 19.3 0.00 0.00 0.00 74 1006.7
20260505210544 28 259 9.7 19.3 0.00 0.00 0.00 73 1006.7
20260505210057 28 225 6.4 16.1 0.00 0.00 0.00 74 1006.8
20260505205544 28 212 8.0 25.7 0.00 0.00 0.00 73 1006.8
20260505205045 27 217 11.3 25.7 0.00 0.00 0.00 74 1006.9
20260505204601 27 217 8.0 25.7 0.00 0.00 0.00 73 1006.9
20260505204044 27 254 11.3 22.5 0.00 0.00 0.00 73 1007.0
20260505203544 28 200 9.7 22.5 0.00 0.00 0.00 74 1007.1
20260505203054 28 221 9.7 22.5 0.00 0.00 0.00 72 1007.0
20260505202543 28 219 8.0 22.5 0.00 0.00 0.00 73 1007.0
20260505202044 27 215 9.7 25.7 0.00 0.00 0.00 73 1007.1
20260505201551 27 230 9.7 25.7 0.00 0.00 0.00 73 1007.3
20260505201045 28 235 11.3 19.3 0.00 0.00 0.00 71 1007.3
20260505200544 28 195 8.0 17.7 0.00 0.00 0.00 73 1007.3
20260505200051 28 192 9.7 17.7 0.00 0.00 0.00 72 1007.3
20260505195547 28 199 9.7 20.9 0.00 0.00 0.00 71 1007.3
20260505195044 28 190 9.7 20.9 0.00 0.00 0.00 71 1007.4
20260505194605 28 206 9.7 16.1 0.00 0.00 0.00 71 1007.4
20260505194044 28 208 4.8 17.7 0.00 0.00 0.00 71 1007.4
20260505193545 28 220 8.0 17.7 0.00 0.00 0.00 73 1007.6
20260505193049 28 197 6.4 16.1 0.00 0.00 0.00 72 1007.6
20260505192544 27 239 6.4 17.7 0.00 0.00 0.00 74 1007.8
20260505192044 27 238 9.7 17.7 0.00 0.00 0.00 72 1007.9
20260505191559 27 221 8.0 14.5 0.00 0.00 0.00 72 1008.0
20260505191044 27 222 6.4 12.9 0.00 0.00 0.00 75 1007.9
20260505190543 27 188 6.4 17.7 0.00 0.00 0.00 75 1008.1
20260505190056 26 263 6.4 17.7 0.00 0.00 0.00 75 1008.2
20260505185549 26 218 8.0 17.7 0.00 0.00 0.00 74 1008.2
20260505185050 27 254 8.0 19.3 0.00 0.00 0.00 73 1008.4
20260505184553 27 219 9.7 24.1 0.00 0.00 0.00 73 1008.4
20260505184044 26 195 9.7 24.1 0.00 0.00 0.00 76 1008.5
20260505183548 27 197 8.0 19.3 0.00 0.00 0.00 76 1008.6
20260505183100 27 194 6.4 19.3 0.00 0.00 0.00 75 1008.5
20260505182544 26 216 11.3 17.7 0.00 0.00 0.00 76 1008.6
20260505182043 26 233 8.0 17.7 0.00 0.00 0.00 79 1008.8
20260505181553 25 229 9.7 17.7 0.00 0.00 0.00 78 1008.9
20260505181044 26 234 6.4 16.1 0.00 0.00 0.00 79 1008.9
20260505180543 25 265 8.0 19.3 0.00 0.00 0.00 79 1008.8
20260505180051 25 234 9.7 19.3 0.00 0.00 0.00 78 1008.8
20260505175543 25 231 8.0 17.7 0.00 0.00 0.00 80 1008.8
20260505175044 25 221 8.0 17.7 0.00 0.00 0.00 78 1009.0
20260505174558 25 234 9.7 20.9 0.00 0.00 0.00 79 1009.0
20260505174044 25 221 9.7 20.9 0.00 0.00 0.00 80 1009.0
20260505173543 25 215 9.7 17.7 0.00 0.00 0.00 80 1009.1
20260505173049 25 224 9.7 20.9 0.00 0.00 0.00 79 1009.1
20260505172545 25 225 11.3 20.9 0.00 0.00 0.00 80 1009.0
20260505172043 25 209 9.7 17.7 0.00 0.00 0.00 80 1009.0
20260505171555 24 221 8.0 20.9 0.00 0.00 0.00 81 1009.0
20260505171047 24 259 11.3 22.5 0.00 0.00 0.00 82 1009.0
20260505170543 24 224 8.0 22.5 0.00 0.00 0.00 82 1009.2
20260505170049 24 208 8.0 16.1 0.00 0.00 0.00 82 1009.2
20260505165544 24 238 9.7 17.7 0.00 0.00 0.00 82 1009.1
20260505165043 23 242 8.0 17.7 0.00 0.00 0.00 83 1009.2
20260505164600 23 233 9.7 22.5 0.00 0.00 0.00 82 1009.3
20260505164043 23 207 11.3 22.5 0.00 0.00 0.00 83 1009.2
20260505163543 23 219 6.4 16.1 0.00 0.00 0.00 83 1009.3
20260505163055 23 196 8.0 16.1 0.00 0.00 0.00 83 1009.4
20260505162547 23 236 8.0 14.5 0.00 0.00 0.00 84 1009.4
20260505162045 23 225 8.0 20.9 0.00 0.00 0.00 84 1009.4
20260505161551 23 215 8.0 20.9 0.00 0.00 0.00 84 1009.3
20260505161045 23 234 8.0 17.7 0.00 0.00 0.00 85 1009.3
20260505160544 23 230 8.0 19.3 0.00 0.00 0.00 85 1009.3
20260505153108 22 225 6.4 17.7 0.00 0.00 0.00 86 1009.3
20260505152544 22 227 8.0 17.7 0.00 0.00 0.00 86 1009.3
20260505152043 22 227 8.0 16.1 0.00 0.00 0.00 86 1009.4
20260505151558 22 218 9.7 19.3 0.00 0.00 0.00 86 1009.3
20260505151044 22 229 9.7 19.3 0.00 0.00 0.00 86 1009.4
20260505150545 22 215 9.7 16.1 0.00 0.00 0.00 86 1009.3
20260505140544 22 223 9.7 19.3 0.00 0.00 0.00 87 1008.8
20260505124553 21 227 6.4 16.1 0.00 0.00 0.00 88 1008.3
20260505124043 21 211 8.0 16.1 0.00 0.00 0.00 88 1008.2
20260505123543 21 227 6.4 22.5 0.00 0.00 0.00 89 1008.0
20260505123057 21 222 8.0 22.5 0.00 0.00 0.00 89 1007.9
20260505122544 21 229 8.0 20.9 0.00 0.00 0.00 89 1007.8
20260505122045 21 232 6.4 14.5 0.00 0.00 0.00 88 1007.7
20260505121548 21 213 6.4 14.5 0.00 0.00 0.00 89 1007.8
20260505121044 21 241 6.4 16.1 0.00 0.00 0.00 88 1007.6
20260505120545 21 216 8.0 16.1 0.00 0.00 0.00 88 1007.5
20260505120053 21 207 6.4 14.5 0.00 0.00 0.00 88 1007.4
20260505115546 21 219 6.4 14.5 0.00 0.00 0.00 88 1007.5
20260505115044 21 214 6.4 14.5 0.00 0.00 0.00 88 1007.5
20260505114550 21 227 6.4 11.3 0.00 0.00 0.00 88 1007.5
20260505114043 21 216 4.8 12.9 0.00 0.00 0.00 88 1007.4
20260505113542 21 209 6.4 14.5 0.00 0.00 0.00 88 1007.5
20260505113052 21 217 6.4 14.5 0.00 0.00 0.00 87 1007.5
20260505112543 21 198 6.4 14.5 0.00 0.00 0.00 87 1007.4
20260505112044 21 242 4.8 12.9 0.00 0.00 0.00 87 1007.5
20260505111555 21 225 6.4 12.9 0.00 0.00 0.00 87 1007.6
20260505111043 21 252 8.0 12.9 0.00 0.00 0.00 87 1007.6
20260505110547 21 238 4.8 12.9 0.00 0.00 0.00 87 1007.5
20260505102044 21 202 6.4 12.9 0.00 0.00 0.00 87 1007.4
20260505101559 21 235 6.4 12.9 0.00 0.00 0.00 87 1007.4
20260505101043 21 208 6.4 16.1 0.00 0.00 0.00 87 1007.4
20260505100545 21 221 8.0 17.7 0.00 0.00 0.00 87 1007.5
20260505100053 21 219 8.0 17.7 0.00 0.00 0.00 87 1007.6
20260505095546 21 213 8.0 17.7 0.00 0.00 0.00 87 1007.5
20260505095043 21 218 8.0 17.7 0.00 0.00 0.00 87 1007.6
20260505094545 21 214 6.4 17.7 0.00 0.00 0.00 87 1007.5
20260505094045 21 222 8.0 17.7 0.00 0.00 0.00 87 1007.6
20260505093543 21 216 6.4 16.1 0.00 0.00 0.00 87 1007.6
20260505093050 21 225 8.0 14.5 0.00 0.00 0.00 87 1007.9
20260505092542 21 229 6.4 14.5 0.00 0.00 0.00 87 1007.9
20260505092042 21 210 8.0 14.5 0.00 0.00 0.00 87 1007.7
20260505091556 21 232 8.0 14.5 0.00 0.00 0.00 87 1007.8
20260505091043 21 221 8.0 12.9 0.00 0.00 0.00 87 1007.8
20260505090547 21 227 6.4 12.9 0.00 0.00 0.00 87 1007.9
20260505090059 21 208 6.4 14.5 0.00 0.00 0.00 87 1008.1
20260505085544 21 239 6.4 14.5 0.00 0.00 0.00 87 1008.2
20260505085044 21 203 6.4 16.1 0.00 0.00 0.00 87 1008.1
20260505084550 21 230 6.4 17.7 0.00 0.00 0.00 87 1008.1
20260505084044 21 222 8.0 17.7 0.00 0.00 0.00 87 1008.0
20260505083543 21 225 6.4 14.5 0.00 0.00 0.00 87 1008.2
20260505083053 21 232 6.4 12.9 0.00 0.00 0.00 87 1008.2
20260505082543 21 248 6.4 16.1 0.00 0.00 0.00 87 1008.3
20260505082044 21 220 6.4 17.7 0.00 0.00 0.00 87 1008.6
20260505081600 21 219 6.4 17.7 0.00 0.00 0.00 87 1008.6
20260505081042 21 189 6.4 14.5 0.00 0.00 0.00 87 1008.5
20260505080542 21 236 8.0 16.1 0.00 0.00 0.00 87 1008.6
20260505080053 21 204 8.0 20.9 0.00 0.00 0.00 86 1008.7
20260505075542 21 219 9.7 20.9 0.00 0.00 0.00 87 1008.7
20260505075042 21 238 6.4 16.1 0.00 0.00 0.00 87 1008.5
20260505074606 21 215 8.0 16.1 0.00 0.00 0.00 87 1008.7
20260505074043 21 243 6.4 12.9 0.00 0.00 0.00 87 1008.8
20260505073542 21 214 8.0 14.5 0.00 0.00 0.00 87 1008.9
20260505073054 21 221 6.4 16.1 0.00 0.00 0.00 87 1008.9
20260505072543 21 216 6.4 16.1 0.00 0.00 0.00 87 1009.0
20260505072043 21 223 8.0 16.1 0.00 0.00 0.00 87 1009.1
20260505071548 21 236 6.4 19.3 0.00 0.00 0.00 87 1009.2
20260505071043 21 214 8.0 19.3 0.00 0.00 0.00 87 1009.2
20260505070543 21 232 6.4 16.1 0.00 0.00 0.00 87 1009.2
20260505070052 21 227 6.4 17.7 0.00 0.00 0.00 86 1009.2
20260505065543 21 211 8.0 17.7 0.00 0.00 0.00 86 1009.3
20260505065042 21 231 6.4 19.3 0.00 0.00 0.00 86 1009.4
20260505064549 21 220 8.0 19.3 0.00 0.00 0.00 86 1009.2
20260505064042 21 232 8.0 17.7 0.00 0.00 0.00 86 1009.2
20260505063544 21 217 8.0 20.9 0.00 0.00 0.00 87 1009.3
20260505063055 21 215 8.0 20.9 0.00 0.00 0.00 87 1009.5
20260505062541 21 208 8.0 14.5 0.00 0.00 0.00 87 1009.4
20260505062042 21 252 6.4 22.5 0.00 0.00 0.00 87 1009.6
20260505061616 21 185 8.0 22.5 0.00 0.00 0.00 87 1009.4
20260505061041 21 251 8.0 19.3 0.00 0.00 0.00 87 1009.5
20260505060550 21 212 6.4 16.1 0.00 0.00 0.00 87 1009.6
20260505060052 21 202 8.0 17.7 0.00 0.00 0.00 86 1009.6
20260505055544 21 235 6.4 19.3 0.00 0.00 0.00 86 1009.6
20260505055049 21 244 8.0 19.3 0.00 0.00 0.00 86 1009.6
20260505054604 21 222 6.4 17.7 0.00 0.00 0.00 86 1009.8
20260505054045 21 210 8.0 17.7 0.00 0.00 0.00 86 1009.6
20260505053541 21 238 8.0 14.5 0.00 0.00 0.00 86 1009.5
20260505053057 21 236 8.0 16.1 0.00 0.00 0.00 85 1009.5
20260505052541 21 232 8.0 16.1 0.00 0.00 0.00 85 1009.5
20260505052042 21 243 8.0 16.1 0.00 0.00 0.00 85 1009.5
20260505051549 21 212 6.4 20.9 0.00 0.00 0.00 85 1009.3
20260505051045 21 211 9.7 20.9 0.00 0.00 0.00 84 1009.4
20260505050541 21 207 8.0 19.3 0.00 0.00 0.00 84 1009.4